sat.trackr.live / text

‹ back to catalog

STARLINK-4149

NORAD 53290 · 2022-086BA

PAYLOAD ACTIVE UNKNOWN

§ Identity

Operator
Country
US
Launch date
2022-07-24
Launch site
AFETR
Launch vehicle
Mass (kg)
RCS (m²)

Purposes: comms

External: N2YO · Heavens-Above · Gunter

§ Orbital elements

Epoch: 2026-05-24T21:32:30.962976Z

Period
95.44 min
Inclination
53.2159°
Eccentricity
0.0001054
Mean motion
15.08878705 rev/d
Perigee alt
538.9 km
Apogee alt
540.4 km
Semi-major
6,917.8 km
B*
9.5192e-5
RAAN
202.0134°
Arg perigee
76.5040°
Mean anomaly
283.6070°
Rev number
21,269

§ Raw data

STARLINK-41491 53290U 22086BA  26144.89758059  .00001229  00000+0  95192-4 0  99982 53290  53.2159 202.0134 0001054  76.5040 283.6070 15.08878705212695

JSON: /api/v1/satellites/53290 · /tle

For live sub-satellite position, see the globe view (requires WebGL).

§ Visibility from observer

Set your observer location to see the next 7 days of passes ≥ 10°. The values pass through the URL so the page stays shareable.

No JS? Fill the form by hand. The geolocation button needs JavaScript.